Location: Ravensburg
(48.5621°N, 13.4088°E)
Time: 14:36:11
(UTC+02:00)

ISS - Pass Details

Date: 22 March 2017
Orbit: 400 x 408 km, 51.6° (Epoch: 27 July)

Event Time Altitude Azimuth Distance (km) Brightness Sun altitude
Exits shadow 03:53:50 28° 137° (SE) 811 -2.2 -21.7°
Drops below altitude 10° 03:55:37 10° 127° (SE) 1,494 -0.7 -21.4°
Sets 03:57:43 0° 124° (ESE) 2,356 0.4 -21.1°
